OpenBCM V1.08-3-g9b42 (Linux)

Packet Radio Mailbox

OK0NBR

[Sao_Jose_dos_Campo]

 Login: GUEST





  
I0OJJ  > KEPS     25.12.25 06:11l 322 Lines 15316 Bytes #297 (0) @ AMSAT
BID : ORB25359.1
Read: GUEST
Subj: 2Line Orbital Elements 25359.AMSAT
Path: OK0NBR<SR8BBS<SR1BSZ<EA2RCF<I0OJJ
Sent: 251225/0021z @:I0OJJ.ITA.EU [Rome] obcm1.08-11-2-gbfe9
From: I0OJJ @ I0OJJ.ITA.EU (Gustavo)
To:   KEPS @ AMSAT
X-Info: This message was generated automatically


QST de W1STR

AMSAT Orbital Elements for Amateur Satellites in TLE Format
From Orbital Analysis Office
New England Sci-Tech STEM Education Center
Natick MA December 25, 2025
To all radio amateurs


These element sets describe the orbits of various satellites 
in use by the amateur radio community. For details see:
www.amsat.org/keplerian-elements-formats/

A daily update of element sets is available at:
www.amsat.org/tle/daily-bulletin.txt
or without bulletin text:
www.amsat.org/tle/dailytle.txt


AO-07
1 07530U 74089B   25358.86752097 -.00000043  00000-0  18253-4 0  9991
2 07530 101.9965   5.2625 0012398 103.8357 331.4298 12.53694442338675
UO-11
1 14781U 84021B   25358.61146028  .00001509  00000-0  16139-3 0  9995
2 14781  97.7830 321.4565 0008884  49.0701 311.1285 14.90179721231123
AO-27
1 22825U 93061C   25358.74635365  .00000125  00000-0  64923-4 0  9996
2 22825  98.7128  61.0413 0007392 249.4105 110.6285 14.30881029682057
FO-29
1 24278U 96046B   25358.60296560 -.00000000  00000-0  35433-4 0  9998
2 24278  98.5455 226.1454 0349701 189.1680 170.2964 13.53263184449554
GO-32
1 25397U 98043D   25358.85923319  .00000076  00000-0  52942-4 0  9992
2 25397  98.9932 342.3516 0001668  37.3772 322.7522 14.24380271426515
ISS
1 25544U 98067A   25358.53581721  .00013157  00000-0  23993-3 0  9991
2 25544  51.6318  84.0604 0003183 295.6588  64.4071 15.49782856544680
NO-44
1 26931U 01043C   25358.68057888  .00000190  00000-0  10186-3 0  9991
2 26931  67.0516 335.5981 0007399 269.3054  90.7200 14.31861350265462
SO-50
1 27607U 02058C   25358.20639118  .00001960  00000-0  25126-3 0  9995
2 27607  64.5532 310.1568 0072709 294.4434  64.9098 14.82437493238518
CO-55
1 27844U 03031E   25358.74417760  .00000343  00000-0  16793-3 0  9990
2 27844  98.6763   4.4923 0009161 338.3652  21.7138 14.24189027166840
CO-57
1 27848U 03031J   25358.29479392  .00000284  00000-0  14428-3 0  9990
2 27848  98.6794   3.9017 0009380 358.2800   1.8344 14.23495319166497
RS-22
1 27939U 03042A   25358.88373866  .00001865  00000-0  29836-3 0  9992
2 27939  98.3365 173.4070 0012449  99.8824  36.5510 14.73003598189882
CO-58
1 28895U 05043F   25357.86213582  .00001683  00000-0  27647-3 0  9998
2 28895  98.2731 145.1287 0014998  45.0546 315.1874 14.71939125 75954
CO-65
1 32785U 08021C   25351.68477250  .00005656  00000-0  38073-3 0  9997
2 32785  97.8081 324.8433 0007829 290.5969  69.4418 15.07103756957832
CO-66
1 32791U 08021J   25358.51409097  .00018923  00000-0  74576-3 0  9996
2 32791  97.7458 344.0677 0002795 160.3109 199.8237 15.25636760960597
RS-30
1 32953U 08025A   25358.78235560  .00000049  00000-0  28342-3 0  9991
2 32953  82.5035 103.9341 0018604 334.2445  25.7707 12.43172192798028
SRMSAT
1 37841U 11058D   25358.77418546  .00000425  00000-0  87141-4 0  9999
2 37841  19.9730  35.1176 0011994  85.0550  74.1634 14.11515378733143
ZACUBE-1
1 39417U 13066B   25351.39749824  .00003280  00000-0  27002-3 0  9999
2 39417  97.8056 307.9496 0042001 132.1904 228.2897 14.99124350653477
Delfi-N3xt
1 39428U 13066N   25358.74677385  .00008389  00000-0  78202-3 0  9992
2 39428  97.8351 274.5769 0080904  66.4251 294.5438 14.91998119648584
GOMX-1
1 39430U 13066Q   25358.82484102  .00003969  00000-0  60907-3 0  9999
2 39430  97.6579 205.1952 0129020 277.5429  81.1137 14.68646884644312
LO-74
1 39440U 13066AA  25351.56788106  .00003439  00000-0  33426-3 0  9993
2 39440  97.8708 295.2332 0058016 269.4523  90.0047 14.92015584649893
AO-73
1 39444U 13066AE  25358.81359858  .00008467  00000-0  57195-3 0  9995
2 39444  97.8081 322.2423 0040969  76.6606 283.9184 15.06146941653383
DTUSAT-2
1 40030U 14033W   25351.70002679  .00007073  00000-0  41774-3 0  9998
2 40030  98.0754 333.4459 0009697 125.2587 234.9550 15.11812878625232
EO-80
1 40032U 14033Y   25358.85794289  .00008633  00000-0  50608-3 0  9997
2 40032  98.0656 340.3852 0009565  56.1465 304.0673 15.12012324626291
LILACSAT-2
1 40908U 15049K   25358.84844515  .00015952  00000-0  33871-3 0  9999
2 40908  97.4900  24.6046 0008499 153.8945 206.2734 15.45078820568776
IO-86
1 40931U 15052B   25151.18580175  .00001241  00000-0  78118-4 0  9996
2 40931   6.0006  24.0987 0012733 338.8432  21.1169 14.78805930523159
Horyu-4
1 41340U 16012D   25358.00841377  .00048174  00000-0  77706-3 0  9999
2 41340  30.9928 232.5523 0006696 344.6881  15.3565 15.51603687543300
Lapan A3
1 41603U 16040E   25358.84685112  .00004560  00000-0  15151-3 0  9994
2 41603  97.1433 355.9630 0008680 283.5677  76.4598 15.31648597528119
CAS-2T
1 41847U 16066G   25358.81696411  .00001107  00000-0  16655-3 0  9997
2 41847  98.4022  71.4398 0342534 298.4698  58.2384 14.44158775479624
TechnoSat
1 42829U 17042E   25358.70836580  .00003908  00000-0  28996-3 0  9996
2 42829  97.4059 158.4005 0017247 335.5052  24.5353 15.03502616460470
AO-91
1 43017U 17073E   25358.58101030  .00012042  00000-0  56559-3 0  9996
2 43017  97.4938 224.5098 0159493 209.5036 149.7123 15.09104745439024
S-Net D
1 43186U 18014G   25358.71333845  .00006073  00000-0  33335-3 0  9999
2 43186  97.5485 259.7060 0006743 263.0782  96.9683 15.14493816432337
S-Net B
1 43187U 18014H   25358.65551625  .00006238  00000-0  34251-3 0  9992
2 43187  97.5493 259.6297 0007400 257.3227 102.7177 15.14468969432323
S-Net A
1 43188U 18014J   25358.71299632  .00006055  00000-0  33229-3 0  9998
2 43188  97.5500 259.8651 0007279 257.9092 102.1324 15.14500146432332
S-Net C
1 43189U 18014K   25358.65852025  .00006431  00000-0  35294-3 0  9995
2 43189  97.5518 259.8584 0008724 249.2596 110.7701 15.14464452430876
Ten-Koh
1 43677U 18084G   25358.77084605  .00003101  00000-0  24218-3 0  9993
2 43677  98.0754 178.8795 0008513 352.1299   7.9789 15.01889664389979
PO-101
1 43678U 18084H   25358.79719130  .00003810  00000-0  31542-3 0  9999
2 43678  98.1039 182.7471 0007483  16.8102 343.3366 14.99502910390077
QO-100
1 43700U 18090A   25358.69355551  .00000165  00000-0  00000+0 0  9995
2 43700   0.0180 335.5932 0001029 329.5102  63.8355  1.00271034 25925
MinXSS-2
1 43758U 18099A   25358.75143027  .00027755  00000-0  81360-3 0  9993
2 43758  97.4777  66.2823 0009695 168.4099 191.7369 15.35118591387264
AO-95
1 43770U 18099N   25358.69264567  .00012744  00000-0  55773-3 0  9994
2 43770  97.4653  54.8871 0008356 237.2995 122.7436 15.22152149386632
SNUSat 2
1 43782U 18099AA  25358.65292112  .00009166  00000-0  44708-3 0  9990
2 43782  97.4334  49.8558 0010996 178.8779 181.2481 15.18477696386519
SnugLite
1 43784U 18099AC  25358.67670634  .00012892  00000-0  55801-3 0  9999
2 43784  97.4143  49.9685 0003353 158.6205 201.5173 15.22549125386729
ITASat 1
1 43786U 18099AE  25358.64362799  .00008042  00000-0  41839-3 0  9996
2 43786  97.4302  48.7067 0012078 237.3945 122.6122 15.16242884386439
EAGLET 1
1 43790U 18099AJ  25358.09399040  .00005792  00000-0  34802-3 0  9990
2 43790  97.4505  47.3391 0010473 226.0668 133.9699 15.11217358385872
ESEO
1 43792U 18099AL  25358.66129253  .00002541  00000-0  19020-3 0  9996
2 43792  97.4229  38.3574 0011768 203.4054 156.6638 15.03535835385572
JO-97
1 43803U 18099AX  25358.67635066  .00016978  00000-0  63821-3 0  9991
2 43803  97.4401  56.4554 0006861 159.3352 200.8166 15.27209336386933
Suomi 100
1 43804U 18099AY  25358.67548603  .00013819  00000-0  57874-3 0  9994
2 43804  97.4461  55.0437 0011205 169.0055 191.1429 15.23601915386806
ISAT
1 43879U 18111D   25358.02662368  .00038624  00000-0  88586-3 0  9990
2 43879  97.5915 278.1836 0004683 189.5513 170.5645 15.42628469383983
UWE-4
1 43880U 18111E   25358.76093029  .00026096  00000-0  76927-3 0  9991
2 43880  97.5861 275.6239 0007575 221.2313 138.8359 15.34974711383927
Sparrow
1 43881U 18111F   25358.77139490  .00047755  00000-0  10069-2 0  9995
2 43881  97.6100 282.7885 0001871 234.3904 125.7170 15.45089594384223
Prox-1
1 44339U 19036A   25358.86752610  .00013851  00000-0  15352-2 0  9996
2 44339  23.9944 194.4261 0006235 178.8149 181.2364 14.85487638347471
Taurus 1
1 44530U 19059C   25358.89352965  .00011121  00000-0  18881-2 0  9994
2 44530  98.6232 148.4184 0009077 137.8248 222.3656 14.69338202333029
TO-108
1 44881U 19093C   25358.82005229  .00001310  00000-0  15533-3 0  9993
2 44881  97.7743  70.1808 0012523 304.2705  55.7324 14.86128964325513
FloripaSat 1
1 44885U 19093G   25358.84051353  .00007760  00000-0  60522-3 0  9991
2 44885  97.8026  87.0916 0009385 293.4834  66.5403 15.01419117326467
RS-44
1 44909U 19096E   25358.74133571  .00000035  00000-0  94230-4 0  9995
2 44909  82.5215  95.6344 0217505 191.9902 167.5975 12.79746190280032
SALSAT
1 46495U 20068K   25358.85589147  .00009239  00000-0  35621-3 0  9997
2 46495  97.8797 346.7832 0010022 182.7319 177.3865 15.26522566288731
CSS (TIANHE-1)
1 48274U 21035A   25358.81873345  .00016866  00000-0  20889-3 0  9995
2 48274  41.4684 303.3494 0008229 137.3880 222.7598 15.59649599265911
CUTE
1 49263U 21088D   25358.77816865  .00030713  00000-0  39091-3 0  9993
2 49263  97.4334  82.1709 0004739 214.8186 145.2761 15.59294583235171
TeikyoSat 4
1 49396U 21102B   25358.80602444  .00001753  00000-0  11555-3 0  9994
2 49396  97.3882  29.9515 0012565 165.4011 194.7583 15.08695595226424
Z-Sat
1 49399U 21102E   25358.85223172  .00004804  00000-0  24862-3 0  9994
2 49399  97.3562  34.4303 0018349 131.7340 228.5466 15.16543760227001
KOSEN 1
1 49402U 21102H   25358.58977653  .00008908  00000-0  37145-3 0  9996
2 49402  97.3452  39.2329 0016250 102.9315 257.3738 15.23797986227401
HO-113
1 50466U 21131B   25358.86990510  .00000609  00000-0  20260-3 0  9998
2 50466  98.5046  87.2304 0003069 258.6830 101.4014 14.41127575210000
